Temp
-2 -2 -2 -2 -3 -3 -3 -3 -3 -1 -1 1 1 1 1 1 1 -1 -1 -0 -0 -0 -0 -0 -0 -0 0 0 1 1 1 1 1 2 2 2 2 2 2 2 2 2 2 2
-3 -3 -3 -3 -2 -2 -2 -2 -2 -1 -1 1 0 0 1 2 0 -0 -1 -1 -1 -0 -0 -1 -0 -0 -0 -0 0 0 0 0 1 1 1 2 2 2 2 2 1 2 1 1
-3 -3 -3 -4 -1 -1 -0 -0 0 -2 2 -0 0 0 1 1 1 0 -1 -1 -1 -1 -1 -1 -0 -0 -0 -0 -0 -0 -0 0 1 1 1 2 2 2 1 1 1 1 1 1
-4 -4 -7 -1 -1 -1 -1 -1 -1 -0 1 0 -0 -1 -1 -0 -0 -0 -1 -1 -1 -1 -1 -1 -0 -0 -0 -0 -0 -0 -0 -0 0 1 1 1 1 1 1 1 1 1 0 -0
-4 -5 -3 -1 -1 -1 -1 0 -0 0 0 0 -1 -2 -1 -1 -1 -1 -1 -1 -1 -1 -1 -1 -0 -0 0 -0 -1 -1 -1 -0 -0 0 1 1 1 1 1 0 0 0 -1 -1
-5 -5 -5 -2 -2 -2 -2 -1 -0 -0 0 0 -1 -1 -1 -1 -1 -2 -1 -1 -2 -2 -1 -1 -1 -0 0 0 -0 -1 -1 -1 -0 0 0 0 0 -0 -1 -0 -1 -1 -1 -1
-5 -5 -4 -3 -2 -3 -3 -1 -1 -1 -1 -0 0 -0 -1 -1 -2 -2 -2 -2 -2 -2 -2 -1 -1 -0 -0 -0 -1 -1 -1 -1 -1 -1 -1 -1 -1 -1 -1 -1 -1 -1 -1 -1
-5 -5 -5 -3 -3 -3 -2 -2 -2 -1 -0 -1 -1 -1 -2 -2 -2 -2 -2 -2 -3 -3 -2 -2 -1 -1 -0 -1 -0 -0 -1 -1 -1 -1 -1 -2 -2 -2 -1 -1 -1 -2 -2 -2
-4 -3 -3 -3 -3 -3 -3 -2 -2 -2 -1 -2 -2 -2 -2 -2 -2 -2 -2 -2 -2 -3 -3 -2 -1 -1 -1 -1 -1 -1 -1 -1 -1 -2 -2 -2 -2 -2 -2 -2 -2 -2 -2 -2
-4 -3 -3 -3 -3 -3 -3 -3 -3 -3 -3 -2 -2 -2 -2 -2 -2 -2 -2 -2 -3 -2 -3 -3 -2 -2 -1 -1 -1 -1 -1 -1 -1 -2 -2 -2 -2 -2 -2 -2 -2 -2 -2 -2
-4 -3 -3 -3 -3 -3 -3 -3 -3 -3 -3 -3 -3 -3 -3 -3 -2 -2 -2 -2 -3 -3 -3 -3 -3 -2 -2 -2 -2 -2 -2 -2 -2 -2 -2 -2 -2 -2 -3 -3 -3 -3 -3 -3
-2 -3 -3 -3 -3 -3 -3 -3 -3 -3 -3 -3 -3 -3 -3 -3 -3 -2 -2 -2 -3 -3 -3 -3 -3 -3 -2 -2 -2 -2 -2 -2 -2 -2 -2 -3 -3 -3 -3 -3 -3 -3 -3 -3
-3 -4 -4 -4 -4 -3 -3 -4 -3 -4 -4 -4 -4 -3 -4 -4 -4 -3 -3 -3 -3 -3 -3 -3 -3 -3 -3 -3 -3 -3 -3 -3 -3 -3 -3 -3 -3 -3 -3 -3 -3 -4 -4 -4
-3 -3 -4 -4 -4 -4 -4 -4 -4 -4 -4 -4 -3 -4 -4 -4 -4 -3 -3 -3 -3 -3 -3 -3 -3 -3 -4 -3 -3 -3 -3 -3 -3 -3 -3 -3 -4 -4 -3 -4 -4 -4 -4 -4
-3 -3 -3 -4 -4 -4 -4 -4 -4 -4 -3 -3 -3 -4 -4 -4 -4 -4 -3 -3 -3 -3 -3 -3 -3 -3 -4 -4 -4 -4 -4 -4 -4 -4 -4 -4 -4 -4 -4 -4 -4 -4 -4 -5
-4 -4 -4 -4 -4 -4 -4 -4 -4 -4 -4 -4 -4 -4 -4 -4 -4 -4 -4 -4 -4 -4 -3 -3 -3 -4 -3 -4 -4 -4 -4 -4 -4 -4 -4 -4 -4 -4 -4 -4 -4 -5 -5 -5
-4 -4 -4 -4 -4 -4 -4 -4 -4 -4 -4 -4 -4 -4 -4 -4 -4 -4 -5 -5 -4 -4 -4 -4 -4 -4 -4 -4 -4 -4 -4 -5 -4 -4 -4 -5 -4 -4 -5 -5 -5 -5 -5 -5
-5 -4 -4 -4 -4 -5 -5 -5 -5 -4 -5 -4 -4 -4 -4 -4 -4 -4 -4 -4 -5 -5 -5 -5 -5 -4 -4 -3 -4 -5 -5 -5 -5 -5 -5 -5 -5 -5 -5 -5 -5 -5 -6 -6
-5 -5 -4 -4 -4 -6 -6 -6 -6 -6 -6 -5 -5 -5 -4 -4 -4 -4 -4 -4 -4 -4 -5 -5 -5 -5 -4 -4 -4 -4 -4 -4 -5 -5 -5 -5 -5 -5 -5 -5 -6 -6 -6 -6
-5 -4 -4 -5 -5 -6 -6 -6 -7 -6 -6 -6 -6 -6 -6 -6 -6 -5 -4 -4 -4 -4 -5 -5 -5 -5 -5 -5 -5 -4 -4 -4 -4 -4 -5 -5 -5 -5 -5 -5 -6 -6 -6 -6
-5 -5 -5 -5 -6 -6 -6 -6 -6 -6 -6 -6 -6 -6 -6 -6 -6 -5 -5 -5 -4 -5 -5 -5 -6 -6 -6 -5 -5 -5 -4 -4 -5 -4 -4 -5 -5 -5 -5 -6 -6 -6 -7 -6
-6 -6 -6 -6 -6 -6 -6 -6 -6 -6 -6 -6 -6 -6 -6 -6 -5 -5 -5 -5 -5 -5 -5 -5 -5 -5 -5 -5 -5 -4 -4 -4 -4 -4 -5 -5 -5 -5 -6 -6 -6 -7 -7 -7
-6 -6 -6 -6 -6 -6 -6 -6 -6 -5 -6 -5 -5 -5 -5 -5 -5 -5 -5 -5 -5 -5 -5 -5 -5 -5 -6 -6 -6 -5 -5 -5 -5 -5 -5 -5 -5 -5 -5 -6 -6 -7 -7 -7
-6 -6 -6 -6 -6 -6 -6 -6 -6 -6 -6 -6 -5 -6 -6 -6 -5 -5 -5 -5 -5 -5 -5 -5 -5 -5 -5 -5 -5 -5 -5 -5 -5 -5 -5 -5 -5 -5 -5 -5 -6 -6 -7 -7
-7 -7 -7 -7 -7 -6 -6 -6 -6 -6 -6 -6 -6 -6 -6 -6 -6 -5 -5 -5 -5 -5 -5 -5 -5 -5 -5 -5 -5 -5 -5 -5 -5 -5 -5 -5 -6 -6 -6 -6 -6 -6 -6 -7
-7 -8 -7 -7 -7 -7 -7 -7 -7 -7 -7 -6 -6 -6 -6 -6 -6 -6 -5 -5 -5 -5 -5 -5 -5 -5 -5 -5 -5 -5 -5 -5 -5 -5 -5 -5 -6 -8 -8 -8 -8 -8 -7 -7
-8 -8 -7 -7 -7 -8 -8 -7 -7 -7 -7 -7 -7 -6 -6 -6 -6 -6 -6 -6 -6 -5 -5 -5 -5 -5 -5 -5 -5 -5 -5 -5 -5 -5 -5 -5 -6 -6 -5 -6 -7 -8 -8 -9
Height
3054 3054 3053 3052 3051 3051 3050 3051 3050 3050 3048 3052 3055 3056 3057 3057 3057 3059 3062 3064 3065 3066 3066 3066 3066 3065 3064 3063 3062 3062 3062 3062 3063 3063 3063 3063 3063 3063 3063 3062 3062 3061 3061 3061
3050 3050 3049 3047 3046 3045 3044 3045 3044 3044 3042 3047 3049 3048 3051 3053 3053 3055 3058 3061 3062 3062 3062 3061 3060 3060 3058 3057 3056 3056 3057 3058 3058 3059 3059 3059 3059 3058 3057 3057 3057 3057 3058 3058
3046 3045 3044 3041 3036 3037 3036 3036 3036 3036 3036 3041 3043 3045 3047 3049 3050 3052 3055 3056 3057 3057 3057 3056 3055 3054 3054 3052 3051 3051 3052 3053 3053 3054 3054 3055 3055 3054 3053 3053 3053 3053 3054 3054
3043 3043 3043 3032 3029 3030 3027 3029 3030 3030 3030 3034 3037 3039 3041 3044 3046 3049 3051 3052 3053 3052 3052 3051 3050 3049 3048 3047 3046 3046 3047 3048 3048 3049 3050 3051 3051 3050 3050 3050 3050 3050 3051 3051
3039 3037 3031 3026 3027 3026 3025 3023 3024 3023 3024 3027 3030 3030 3032 3037 3040 3044 3046 3047 3048 3048 3047 3046 3045 3044 3042 3042 3041 3041 3041 3042 3043 3044 3045 3046 3046 3046 3047 3047 3047 3048 3049 3051
3034 3034 3029 3024 3022 3021 3021 3020 3019 3018 3019 3020 3022 3023 3027 3033 3037 3040 3042 3042 3043 3043 3042 3041 3039 3038 3037 3036 3035 3035 3034 3035 3037 3040 3041 3042 3043 3044 3044 3046 3046 3048 3050 3050
3028 3029 3022 3020 3020 3020 3022 3023 3017 3016 3015 3015 3017 3023 3027 3031 3034 3036 3037 3038 3038 3038 3037 3036 3035 3034 3033 3032 3030 3031 3030 3030 3032 3035 3037 3038 3040 3041 3043 3044 3046 3048 3048 3048
3023 3025 3021 3016 3016 3018 3018 3017 3016 3014 3013 3012 3016 3020 3024 3027 3029 3031 3034 3035 3034 3034 3034 3033 3031 3030 3029 3028 3027 3027 3027 3027 3029 3031 3033 3035 3037 3039 3041 3042 3043 3045 3045 3045
3014 3013 3013 3013 3013 3014 3014 3015 3015 3015 3014 3014 3017 3020 3022 3024 3026 3028 3031 3032 3031 3031 3030 3030 3029 3028 3027 3026 3024 3024 3024 3025 3026 3028 3031 3033 3035 3038 3039 3040 3040 3041 3041 3041
3010 3009 3010 3011 3012 3013 3013 3013 3014 3015 3015 3015 3016 3017 3019 3021 3023 3025 3027 3028 3029 3028 3028 3027 3026 3025 3024 3023 3023 3023 3023 3024 3026 3028 3030 3032 3034 3035 3036 3036 3037 3037 3037 3037
3004 3005 3007 3007 3009 3010 3010 3011 3012 3013 3014 3014 3015 3015 3017 3018 3019 3020 3021 3023 3024 3025 3024 3024 3024 3023 3022 3022 3022 3022 3023 3024 3026 3027 3029 3030 3031 3031 3032 3032 3033 3033 3033 3033
2999 3001 3002 3004 3005 3006 3007 3008 3009 3010 3011 3012 3013 3013 3014 3015 3015 3016 3017 3018 3019 3020 3020 3020 3021 3020 3020 3020 3020 3021 3022 3023 3024 3025 3026 3027 3027 3028 3028 3028 3028 3029 3029 3029
2998 2998 2999 2999 3001 3003 3004 3005 3006 3007 3008 3009 3009 3009 3010 3010 3011 3012 3013 3013 3014 3015 3015 3016 3016 3016 3017 3017 3017 3018 3019 3019 3020 3020 3022 3023 3023 3023 3023 3024 3024 3024 3024 3023
2994 2994 2995 2996 2997 2999 3001 3002 3003 3004 3005 3005 3005 3005 3006 3007 3007 3008 3008 3009 3010 3011 3011 3012 3012 3012 3013 3014 3013 3013 3014 3015 3015 3015 3015 3017 3018 3017 3018 3019 3019 3019 3018 3018
2990 2991 2991 2992 2992 2993 2995 2997 2998 2999 2999 2999 3000 3000 3001 3001 3001 3002 3003 3004 3005 3006 3007 3007 3008 3009 3008 3008 3008 3008 3008 3009 3009 3009 3009 3010 3011 3012 3012 3012 3013 3012 3012 3012
2986 2987 2988 2988 2989 2990 2991 2992 2992 2992 2993 2993 2993 2994 2994 2995 2995 2995 2996 2997 2998 2999 3000 3001 3002 3002 3002 3002 3003 3003 3002 3002 3002 3003 3004 3005 3005 3005 3005 3005 3005 3005 3005 3004
2981 2983 2984 2985 2985 2986 2986 2986 2986 2986 2986 2986 2985 2986 2986 2987 2988 2988 2989 2990 2991 2992 2993 2994 2995 2994 2995 2996 2997 2997 2997 2996 2996 2997 2997 2997 2998 2997 2998 2998 2998 2998 2998 2996
2976 2977 2978 2979 2979 2979 2979 2979 2978 2978 2978 2978 2978 2979 2979 2979 2979 2980 2981 2982 2984 2985 2987 2987 2987 2987 2988 2988 2989 2990 2990 2989 2989 2989 2990 2990 2990 2989 2989 2989 2990 2990 2989 2988
2970 2970 2971 2972 2971 2971 2972 2972 2972 2971 2970 2970 2970 2971 2971 2971 2971 2972 2973 2973 2975 2977 2979 2978 2979 2980 2981 2982 2981 2981 2982 2982 2982 2982 2982 2981 2980 2981 2980 2980 2980 2979 2978 2978
2963 2964 2964 2965 2966 2966 2966 2966 2966 2966 2965 2965 2965 2965 2965 2964 2963 2963 2964 2965 2966 2968 2968 2969 2971 2972 2973 2972 2972 2972 2973 2973 2972 2972 2972 2972 2972 2972 2972 2971 2971 2970 2970 2970
2959 2959 2960 2961 2961 2962 2962 2962 2963 2962 2963 2963 2962 2961 2961 2960 2959 2958 2958 2958 2958 2960 2961 2961 2962 2963 2964 2964 2964 2964 2964 2963 2963 2963 2963 2963 2962 2962 2961 2961 2960 2960 2960 2960
2958 2958 2959 2960 2960 2961 2962 2962 2963 2962 2961 2961 2960 2959 2959 2958 2957 2956 2955 2954 2954 2954 2954 2954 2954 2955 2955 2955 2955 2955 2955 2954 2954 2953 2953 2953 2952 2951 2950 2950 2949 2949 2949 2950
2960 2960 2960 2961 2961 2962 2961 2961 2961 2960 2959 2958 2957 2956 2955 2954 2952 2951 2950 2949 2949 2948 2948 2947 2947 2947 2947 2947 2947 2946 2946 2945 2945 2944 2944 2943 2942 2941 2940 2939 2939 2939 2939 2940
2960 2960 2960 2960 2960 2959 2958 2958 2957 2956 2954 2953 2951 2950 2948 2947 2946 2945 2944 2943 2942 2942 2941 2941 2941 2940 2940 2940 2939 2939 2938 2937 2937 2936 2936 2935 2934 2933 2932 2932 2931 2930 2930 2929
2959 2958 2958 2957 2956 2955 2954 2953 2952 2950 2949 2948 2946 2945 2944 2942 2941 2939 2938 2937 2936 2935 2935 2934 2934 2934 2933 2933 2932 2932 2931 2930 2929 2928 2928 2927 2926 2925 2924 2924 2923 2922 2921 2921
2956 2956 2955 2953 2952 2951 2950 2949 2947 2946 2945 2944 2942 2941 2940 2938 2937 2935 2934 2933 2931 2930 2929 2928 2927 2927 2926 2925 2924 2923 2922 2921 2920 2919 2918 2917 2916 2915 2914 2913 2913 2912 2911 2910
2953 2952 2950 2949 2947 2946 2945 2944 2943 2942 2941 2940 2938 2937 2935 2934 2932 2931 2929 2928 2927 2925 2924 2923 2922 2921 2920 2918 2917 2916 2914 2913 2911 2910 2909 2908 2906 2905 2904 2903 2902 2901 2900 2899
Wind_Speed
20 17 14 15 19 28 42 42 30 30 37 35 30 29 18 16 14 19 19 17 14 13 16 18 21 25 26 25 25 26 26 25 22 21 20 19 18 18 19 19 19 20 19 18
18 18 19 21 19 20 28 32 42 43 46 33 24 23 22 25 20 18 16 14 15 17 18 19 21 23 24 24 24 23 21 20 19 18 17 17 17 18 18 18 17 16 15 15
11 14 15 18 30 32 31 32 34 39 30 31 25 20 22 23 17 17 14 15 16 17 19 19 19 20 20 19 18 19 19 19 18 17 16 16 17 16 13 13 13 12 12 11
6 4 3 14 17 14 22 30 36 35 32 27 22 25 26 23 20 18 15 16 17 18 20 19 19 19 19 18 18 18 20 20 19 18 18 17 15 13 12 11 11 11 9 8
6 10 17 22 17 16 18 22 17 21 24 25 26 24 30 26 25 21 19 18 18 19 18 18 19 19 19 20 20 19 19 22 20 19 19 17 15 13 13 11 9 8 9 11
10 4 5 2 2 6 11 18 11 16 18 19 26 28 26 20 20 21 20 19 18 17 17 18 18 18 18 17 17 18 20 21 20 20 17 15 15 12 11 11 9 11 12 11
20 11 12 11 11 9 5 6 9 8 10 15 26 20 16 22 21 21 19 18 17 17 17 16 15 14 13 13 13 13 12 14 17 17 15 13 13 13 12 12 12 12 12 10
21 12 13 6 8 11 5 7 6 7 9 12 17 16 13 15 17 16 15 13 13 15 15 14 12 11 11 11 11 11 11 11 12 13 13 14 13 13 14 13 13 12 11 10
15 11 9 7 6 5 8 10 5 5 2 3 8 12 13 16 20 13 11 15 13 16 11 11 10 9 8 8 8 9 11 12 12 14 15 14 15 16 15 14 13 12 11 11
16 16 16 12 9 7 5 5 7 6 6 5 11 16 16 15 14 15 17 16 15 15 12 9 9 8 7 6 5 5 7 10 12 14 14 15 16 16 15 15 14 13 12 13
23 20 14 9 7 9 12 8 9 11 11 9 9 10 10 15 21 19 18 18 15 15 13 10 10 9 9 8 7 7 8 10 12 14 15 16 17 16 16 15 15 15 14 15
19 12 12 10 11 13 12 10 11 9 10 11 12 12 13 14 14 14 21 21 17 18 17 15 15 13 10 11 11 12 13 13 14 15 16 17 18 17 17 17 17 17 17 17
14 13 15 16 13 9 11 11 10 10 10 12 14 15 15 16 17 15 14 14 15 17 18 19 18 15 14 13 14 15 16 16 16 16 17 19 19 19 19 19 19 19 19 19
11 11 14 17 17 16 14 13 15 16 16 16 15 15 16 17 17 19 19 18 17 17 17 16 16 13 14 15 15 15 18 19 18 19 19 20 21 21 21 21 21 21 21 21
13 13 15 14 12 14 17 20 21 20 20 20 20 18 17 18 20 22 22 22 21 21 20 17 16 16 17 17 17 18 19 18 20 22 22 23 23 23 23 23 23 23 23 22
13 15 15 16 16 15 15 17 19 21 22 23 22 24 25 23 21 21 25 24 24 23 22 25 22 20 23 24 20 20 18 19 22 23 24 25 25 25 26 25 25 25 24 25
14 10 13 15 15 17 18 20 21 23 24 24 25 26 26 27 24 23 23 26 25 23 23 21 21 23 24 28 30 25 26 24 25 26 25 26 27 27 28 28 27 26 25 27
17 19 22 22 21 25 26 24 23 24 27 28 27 26 24 23 23 25 27 27 27 27 25 25 25 24 24 26 28 29 26 26 27 25 26 27 27 29 30 30 28 27 29 31
26 26 26 27 23 21 21 21 22 23 23 20 21 22 23 24 24 25 27 28 29 29 29 30 28 28 26 28 28 31 33 30 30 28 31 28 31 31 32 32 32 36 36 34
18 19 18 18 18 17 15 19 20 17 14 12 15 14 15 17 20 23 25 24 26 27 28 31 31 29 28 29 29 31 31 32 33 33 34 34 33 34 35 35 34 34 32 30
9 11 11 11 9 9 9 8 9 8 9 9 7 5 4 5 8 11 15 19 21 23 23 24 27 29 30 30 32 29 29 33 35 35 36 37 37 36 36 35 35 35 34 32
8 9 8 6 6 5 4 3 2 3 6 8 10 11 11 11 12 12 11 10 13 18 22 24 26 28 30 30 30 30 30 29 30 31 33 35 37 38 37 36 35 35 33 32
4 4 3 2 1 3 5 6 9 11 12 14 15 16 17 17 17 17 17 17 18 17 15 17 21 22 23 25 27 27 28 29 30 29 28 26 26 26 27 28 31 33 33 32
4 4 6 8 9 11 13 15 16 16 16 17 18 17 17 17 17 18 18 18 18 20 21 21 19 18 18 19 20 20 21 22 23 24 25 25 25 25 26 26 26 27 31 34
7 8 8 9 11 12 13 14 15 16 16 16 15 14 14 14 14 13 14 15 15 16 17 19 22 24 24 24 24 25 25 26 27 28 29 29 29 30 29 29 29 30 31 33
9 12 15 16 17 16 15 14 14 14 14 14 14 14 14 14 13 13 14 14 14 15 15 16 18 19 20 22 24 26 27 29 31 31 32 32 32 32 31 31 31 32 33 34
15 17 19 20 19 16 15 14 13 14 14 15 16 16 16 16 16 16 16 16 17 17 17 18 19 19 20 21 22 23 24 25 26 27 26 26 28 30 29 29 31 32 36 39
Wind_Direction
254 261 263 257 253 237 227 232 236 253 258 261 256 265 288 292 269 234 241 233 232 250 264 271 275 276 276 276 275 274 269 266 264 264 265 266 268 270 271 269 269 272 272 270
263 255 256 259 253 247 243 245 248 253 259 263 265 251 246 268 242 232 228 230 253 265 272 279 279 277 274 275 274 267 262 256 253 254 256 261 267 273 273 268 267 263 265 263
261 260 256 263 256 246 247 247 247 245 259 257 253 241 237 243 237 226 240 246 259 274 278 281 277 277 279 277 271 262 252 247 249 253 255 265 269 270 264 258 257 253 255 256
252 244 267 255 252 250 247 254 256 260 261 263 262 253 245 241 243 237 247 252 275 276 281 280 277 278 281 280 271 263 251 248 250 254 256 263 262 257 258 253 247 246 235 217
222 214 273 268 259 261 262 267 269 264 263 256 249 252 240 237 232 235 247 263 273 276 278 280 277 277 279 276 267 260 253 248 249 253 253 255 254 255 251 236 217 206 188 185
211 235 245 258 273 252 252 282 287 268 259 241 230 242 234 230 230 237 250 265 270 270 275 283 279 280 280 273 268 264 255 246 244 245 248 248 247 231 206 201 194 188 196 201
223 238 269 266 275 259 235 289 313 298 270 237 227 243 241 234 236 252 251 254 261 271 278 287 284 282 278 272 264 258 253 242 238 235 234 229 207 199 202 195 200 209 215 223
221 227 261 263 248 230 249 301 313 308 290 248 223 227 215 220 230 233 231 260 269 270 276 286 283 282 283 275 264 249 241 231 223 218 207 197 203 208 207 209 213 221 230 241
207 228 235 270 258 247 268 262 283 309 328 175 210 208 215 229 223 211 236 258 256 287 268 280 278 276 280 280 265 247 235 225 216 203 199 207 212 214 218 221 225 232 242 254
230 245 245 246 257 259 250 261 246 262 282 260 211 212 221 219 224 229 239 248 265 264 272 286 290 272 272 277 271 245 218 204 199 205 214 218 221 223 226 230 237 242 249 257
245 251 248 231 265 274 255 272 251 247 255 267 284 287 264 240 233 229 227 236 248 260 268 281 302 291 265 256 252 246 231 224 225 228 229 230 231 232 234 238 244 251 257 264
258 282 260 254 266 241 246 276 247 250 244 251 259 270 267 267 267 260 242 238 243 253 264 273 281 285 281 261 250 246 241 237 238 238 241 240 240 241 243 246 249 255 259 265
260 262 259 258 261 256 239 241 241 246 256 263 268 269 267 259 259 261 258 255 254 257 256 262 271 271 267 264 254 247 246 245 244 244 247 249 247 249 251 253 254 257 262 266
238 254 257 258 258 250 245 251 250 253 269 274 273 271 267 266 267 261 261 249 250 256 260 262 261 270 265 254 254 253 252 251 249 248 249 253 254 253 254 256 259 261 263 267
262 278 265 252 247 244 245 250 260 269 274 275 267 264 268 268 265 262 257 253 250 252 252 253 256 257 266 268 263 258 254 258 254 251 250 251 254 256 256 258 260 262 266 269
256 272 279 251 252 259 261 263 266 268 270 271 266 266 270 270 265 260 259 262 262 260 259 253 251 250 251 267 268 271 269 260 259 258 254 255 255 256 258 259 261 263 267 269
242 239 265 275 264 263 266 271 270 268 267 269 271 269 267 266 262 258 256 256 258 260 263 268 271 262 255 255 259 265 267 263 265 260 261 255 255 258 259 260 262 264 267 271
245 252 264 272 269 272 273 271 272 269 264 263 263 265 267 264 260 256 254 255 257 260 262 260 258 256 258 256 260 263 267 268 262 265 254 260 263 259 258 260 261 262 262 265
249 257 264 271 269 264 265 270 269 272 277 274 261 262 266 265 263 261 259 258 256 257 256 254 253 254 257 258 259 259 261 262 264 272 271 266 265 267 268 268 264 264 268 266
254 256 260 263 263 265 264 263 267 269 268 272 277 280 280 278 273 266 258 257 254 255 255 255 252 253 257 261 263 257 260 262 264 265 262 270 270 271 273 274 274 276 276 276
254 253 252 252 253 252 251 255 269 274 273 261 244 246 281 325 320 286 267 258 255 254 255 255 258 255 257 262 267 269 269 266 263 267 268 268 268 270 272 272 269 269 271 271
100 98 101 111 111 116 122 104 38 344 339 332 325 319 310 302 300 303 309 296 275 264 260 259 259 258 260 259 267 264 268 268 267 267 269 270 271 273 274 272 268 265 265 266
126 130 141 163 247 289 296 298 298 298 297 298 297 295 292 288 286 285 284 277 268 266 273 268 264 265 265 266 269 269 269 269 270 270 269 269 271 273 273 271 269 267 262 262
216 249 269 279 285 289 291 291 291 293 294 295 299 299 295 291 287 284 282 281 276 269 263 262 265 268 269 268 268 270 271 270 269 269 270 272 275 276 276 276 274 270 265 264
277 286 293 299 304 303 300 298 297 297 297 297 299 301 301 300 298 295 290 287 284 281 277 272 269 268 268 268 269 269 270 270 270 271 273 273 274 274 275 275 276 275 273 272
298 300 303 303 301 297 300 302 304 305 304 302 300 301 302 303 302 299 296 294 292 290 287 285 283 280 279 277 276 276 276 276 276 278 279 278 276 273 273 272 272 273 274 274
298 301 303 304 304 298 290 292 298 305 308 308 306 304 302 301 301 300 299 298 296 294 292 290 288 286 285 284 283 283 283 283 284 285 285 282 282 282 282 278 280 275 271 270